Location: Newark
(41.6500°N, 71.4833°W)
Time: 20:15:40
(UTC+00:00)

deb Explorer IX - Pass Details

Date: 02 February 2020
Orbit: 549 x 1099 km, 38.8° (Epoch: 18 February)

Event Time Altitude Azimuth Distance (km) Brightness Sun altitude
Rises 04:55:53 0° 278° (W) 3,800 - -65.3°
Reaches altitude 10° 04:58:55 10° 268° (W) 2,894 - -65.3°
Maximum altitude 05:04:53 29° 211° (SSW) 1,883 - -65.3°
Drops below altitude 10° 05:10:55 10° 155° (SSE) 2,925 - -65.2°
Sets 05:14:00 0° 145° (SE) 3,847 - -65.1°
